Location: Newark
(59.4564°N, 26.6917°E)
Time: 11:59:47
(UTC+00:00)

SR - Pass Details

Date: 28 November 2019
Orbit: 573 x 882 km, 66.7° (Epoch: 10 December)

Event Time Altitude Azimuth Distance (km) Brightness Sun altitude
Rises 14:55:54 0° 280° (W) 3,407 ? -10.4°
Reaches altitude 10° 14:58:29 10° 288° (WNW) 2,503 ? -10.7°
Maximum altitude 15:04:01 42° 358° (N) 1,245 ? -11.3°
Enters shadow 15:08:30 16° 64° (ENE) 2,165 ? -11.9°
Drops below altitude 10° 15:09:40 10° 69° (ENE) 2,549 - -12.0°
Sets 15:12:19 0° 76° (ENE) 3,477 - -12.3°
